Weather History for Ireland West Airport Knock, Ireland

Change the Weather History Date:

Tuesday, February 21, 2012

  Actual Average Record
Temperature  
Mean Temperature 48 °F -  
Max Temperature 49 °F - - ()
Min Temperature 46 °F - - ()
Degree Days  
Heating Degree Days 17    
Moisture  
Dew Point 47 °F    
Average Humidity 96    
Maximum Humidity 100    
Minimum Humidity 83    
Precipitation  
Precipitation 0.04 in - - ()
Sea Level Pressure  
Sea Level Pressure 30.06 in    
Wind  
Wind Speed 16 mph ()    
Max Wind Speed 23 mph    
Max Gust Speed 37 mph    
Visibility 5.3 miles    
Events Rain    
T = Trace of Precipitation, MM = Missing Value Source: Averaged Metar Reports

Daily Weather History Graph

Daily Weather History Graph

Search for Another Location

Airport:

Trip Planner

Search our weather history database for the weather conditions in past years. The results will help you decide how hot, cold, wet, or windy it might be!

Date:

Astronomy

Feb. 21, 2012 Rise Set
Actual Time 7:43 AM GMT 5:55 PM GMT
Civil Twilight 7:07 AM GMT 6:31 PM GMT
Nautical Twilight 6:26 AM GMT 7:12 PM GMT
Astronomical Twilight 5:45 AM GMT 7:53 PM GMT
Moon 7:02 AM GMT (2/21) 5:54 PM GMT (2/21)
Length of Visible Light 11h 24m
Length of Day
10h 12m
Waning Crescent, 0% of the Moon is Illuminated
Feb 21
Waning Crescent
Feb 21
New
Mar 1
First Quarter
Mar 8
Full
Mar 15
Last Quarter

Hourly Weather History & Observations

Time (GMT) Temp. Dew Point Humidity Pressure Visibility Wind Dir Wind Speed Gust Speed Precip Events Conditions
12:00 AM 48 °F 48 °F 98% 30.14 in - SSW 13.4 mph - -  
6:00 AM 47 °F 47 °F 100% 30.10 in 1 mi SSW 17.9 mph - - Rain Light Drizzle
8:00 AM 48.2 °F 48.2 °F 100% 30.06 in 6.2 mi SSW 16.1 mph - N/A   Light Drizzle
8:30 AM 48.2 °F 48.2 °F 100% 30.06 in 6.2 mi SSW 18.4 mph 29.9 mph N/A   Light Drizzle
9:00 AM 48.2 °F 48.2 °F 100% 30.06 in 6.2 mi SSW 18.4 mph 29.9 mph N/A   Overcast
9:30 AM 48.2 °F 46.4 °F 93% 30.06 in 6.2 mi SSW 18.4 mph - N/A   Overcast
10:00 AM 48.2 °F 46.4 °F 93% 30.06 in 6.2 mi SSW 17.3 mph - N/A   Overcast
10:30 AM 48.2 °F 46.4 °F 93% 30.06 in 6.2 mi SSW 19.6 mph - N/A   Overcast
11:00 AM 48.2 °F 46.4 °F 93% 30.06 in 6.2 mi SSW 20.7 mph - N/A   Mostly Cloudy
11:30 AM 48.2 °F 46.4 °F 93% 30.06 in 6.2 mi SSW 16.1 mph - N/A   Overcast
12:00 PM 49 °F 46 °F 83% 30.08 in 19 mi SSW 22.4 mph - -   Partly Cloudy
12:00 PM 48.2 °F 46.4 °F 93% 30.06 in 6.2 mi SSW 23.0 mph 36.8 mph N/A   Mostly Cloudy
12:30 PM 50.0 °F 46.4 °F 87% 30.06 in 6.2 mi SSW 20.7 mph 34.5 mph N/A   Light Drizzle
1:00 PM 48.2 °F 46.4 °F 93% 30.06 in 2.5 mi SSW 17.3 mph - N/A   Light Drizzle
1:30 PM 48.2 °F 48.2 °F 100% 30.04 in 2.5 mi SSW 17.3 mph - N/A Rain Light Rain
2:00 PM 48.2 °F 48.2 °F 100% 30.04 in 3.7 mi SSW 20.7 mph 32.2 mph N/A Rain Light Rain
2:30 PM 48.2 °F 48.2 °F 100% 30.04 in 6.2 mi SSW 18.4 mph - N/A   Light Drizzle
3:00 PM 48.2 °F 48.2 °F 100% 30.01 in 3.1 mi SSW 21.9 mph 35.7 mph N/A Rain Light Rain
3:30 PM 48.2 °F 48.2 °F 100% 30.01 in 2.5 mi SSW 21.9 mph 36.8 mph N/A Rain Light Rain
4:00 PM 48.2 °F 48.2 °F 100% 30.01 in 2.5 mi SSW 21.9 mph 34.5 mph N/A Rain Light Rain
6:00 PM 48 °F 48 °F 100% 30.03 in 2 mi SSW 20.1 mph - - Rain Light Rain